TimeCST,TemperatureF,Dew PointF,Humidity,Sea Level PressureIn,VisibilityMPH,Wind Direction,Wind SpeedMPH,Gust SpeedMPH,PrecipitationIn,Events,Conditions,WindDirDegrees,DateUTC
12:52 AM,51.1,27.0,39,29.87,10.0,South,11.5,-,N/A,,Clear,170,2013-11-20 06:52:00
1:52 AM,51.1,28.0,41,29.87,10.0,South,11.5,-,N/A,,Mostly Cloudy,170,2013-11-20 07:52:00
2:52 AM,52.0,28.9,41,29.85,10.0,South,11.5,-,N/A,,Overcast,170,2013-11-20 08:52:00
3:52 AM,52.0,28.9,41,29.86,10.0,South,9.2,-,N/A,Thunderstorm,Overcast,190,2013-11-20 09:52:00
4:09 AM,52.0,28.9,41,29.85,10.0,South,8.1,-,N/A,,Overcast,190,2013-11-20 10:09:00
4:52 AM,50.0,30.0,46,29.85,10.0,South,9.2,-,N/A,,Scattered Clouds,180,2013-11-20 10:52:00
5:52 AM,48.9,30.9,50,29.84,10.0,South,9.2,-,N/A,,Clear,170,2013-11-20 11:52:00
6:52 AM,46.9,30.9,54,29.85,10.0,SE,5.8,-,N/A,,Clear,130,2013-11-20 12:52:00
7:52 AM,46.0,32.0,58,29.86,10.0,SE,5.8,-,N/A,,Clear,130,2013-11-20 13:52:00
8:52 AM,52.0,33.1,49,29.86,10.0,SSE,10.4,-,N/A,,Clear,150,2013-11-20 14:52:00
9:52 AM,55.0,34.0,45,29.85,10.0,South,15.0,-,N/A,,Clear,170,2013-11-20 15:52:00
10:52 AM,59.0,36.0,42,29.84,10.0,SSW,17.3,26.5,N/A,,Clear,200,2013-11-20 16:52:00
11:52 AM,61.0,37.9,42,29.81,10.0,South,13.8,24.2,N/A,,Clear,190,2013-11-20 17:52:00
12:52 PM,63.0,39.9,43,29.79,10.0,South,13.8,24.2,N/A,,Clear,190,2013-11-20 18:52:00
1:52 PM,64.0,42.1,45,29.76,10.0,South,11.5,-,N/A,,Clear,190,2013-11-20 19:52:00
2:52 PM,64.0,43.0,46,29.76,10.0,South,12.7,21.9,N/A,,Clear,190,2013-11-20 20:52:00
3:52 PM,62.1,44.1,52,29.77,10.0,South,11.5,-,N/A,,Clear,190,2013-11-20 21:52:00
4:52 PM,59.0,44.1,58,29.80,10.0,South,10.4,-,N/A,,Clear,190,2013-11-20 22:52:00
5:52 PM,55.9,44.1,64,29.83,10.0,South,9.2,-,N/A,,Clear,180,2013-11-20 23:52:00
6:52 PM,54.0,43.0,66,29.84,10.0,South,6.9,-,N/A,,Clear,190,2013-11-21 00:52:00
7:52 PM,52.0,42.1,69,29.86,10.0,SSW,4.6,-,N/A,,Clear,200,2013-11-21 01:52:00
8:52 PM,48.9,42.1,77,29.89,10.0,Calm,Calm,-,N/A,,Clear,0,2013-11-21 02:52:00
9:52 PM,46.0,41.0,83,29.90,10.0,Calm,Calm,-,N/A,,Clear,0,2013-11-21 03:52:00
10:52 PM,43.0,41.0,93,29.91,10.0,Calm,Calm,-,N/A,,Clear,0,2013-11-21 04:52:00
11:52 PM,43.0,41.0,93,29.91,10.0,Calm,Calm,-,N/A,,Clear,0,2013-11-21 05:52:00